{"data":{"norad_id":60447,"intl_designator":"2024-144Y","name":"STARLINK-32101","alt_names":[],"object_type":"PAYLOAD","status":"ACTIVE","operator":null,"country":"US","launch_date":"2024-08-12","launch_site_code":"AFETR","launch_vehicle":null,"mission":null,"orbit_class":"UNKNOWN","rcs_meters":null,"size_class":null,"mass_kg":null,"dimensions":null,"purposes":["comms"],"wikipedia_slug":null,"has_3d_model":false,"image_url":null,"decayed_at":null,"tle_current":{"epoch":"2026-05-25T05:23:22.026336Z","epoch_age_seconds":51588,"freshness":"FRESH","line1":"1 60447U 24144Y   26145.22456049  .00000867  00000+0  36801-4 0  9998","line2":"2 60447  53.1602 220.4532 0001221  89.4209 270.6933 15.34403027101041","mean_motion":15.34403027,"eccentricity":0.0001221,"inclination_deg":53.1602,"raan_deg":220.4532,"arg_perigee_deg":89.4209,"mean_anomaly_deg":270.6933,"bstar":3.6801e-5,"rev_number":10104,"period_min":93.847572942777,"perigee_km":461.85897784517,"apogee_km":463.5295088348,"semimajor_km":6840.83124334,"source":"CELESTRAK","updated_at":"2026-05-25T13:38:19.277650Z"}}}